Regional Weather Roundup
Issued by NWS

Home | Current Version | Previous Version | Graphics & Text | Print | Product List | Glossary On
Versions: 1 2 3 4 5 6 7 8 9 10 11 12 13 14 15 16 17 18 19 20 21 22 23 24 25 26 27 28 29 30 31 32 33 34 35 36 37 38 39 40 41 42 43 44 45 46 47 48 49 50
000
ASUS45 KTFX 010210
RWRMT
MONTANA REGIONAL WEATHER ROUNDUP
NATIONAL WEATHER SERVICE GREAT FALLS MT
800 PM MDT FRI JUL 31 2015

NOTE: "FAIR" INDICATES FEW OR NO CLOUDS BELOW 12000 FEET WITH NO
SIGNIFICANT WEATHER AND/OR OBSTRUCTIONS TO VISIBILITY.

MTZ001>007-043-010300-
WEST OF THE DIVIDE

CITY           SKY/WX    TMP DP  RH WIND       PRES   REMARKS
KALISPELL      CLEAR     89  39  17 S3        29.99F
MISSOULA       SUNNY     90  27  10 W10       30.05S
BUTTE          CLEAR     83  26  12 NW9       30.24S
MULLAN PASS    SUNNY     77  21  12 VRB6G17   30.28F
DEER LODGE       N/A     82  37  20 CALM      30.20S
EUREKA           N/A     93  32  11 SW8       29.98S
HAMILTON         N/A     91  41  17 CALM      30.08S
LIBBY            N/A     95  28   9 CALM      29.99S
PLAINS           N/A     96  37  12 SW6       30.00S HX  91
$$

MTZ008-052>055-010300-
SOUTHWEST MONTANA

CITY           SKY/WX    TMP DP  RH WIND       PRES   REMARKS
BOZEMAN        CLEAR     82  43  25 SE3       30.15F
DILLON         CLEAR     83  31  15 CALM      30.19F
W YELLOWSTONE  CLEAR     75  36  23 W3        30.33S
$$

MTZ009-010-012-014-046-048-049-054-010300-
EAST SLOPES AND CENTRAL MONTANA

CITY           SKY/WX    TMP DP  RH WIND       PRES   REMARKS
CUT BANK       CLEAR     87  27  11 W8        30.05F
GREAT FALLS    CLEAR     86  34  15 S3        30.06F
MALMSTROM AFB  CLEAR     86  35  16 S3        30.05F
HELENA         CLEAR     91  28  10 W8        30.08F
CONRAD           N/A     86  39  18 SE2       30.08S
$$

MTZ011-013-016-021-045-047-050-051-010300-
NORTH CENTRAL MONTANA

CITY           SKY/WX    TMP DP  RH WIND       PRES   REMARKS
HAVRE          CLEAR     87  40  19 NE6       29.99F
LEWISTOWN      CLEAR     83  42  23 N7        30.13S
CHINOOK          N/A     88  39  18 CALM      29.99S
FORT BENTON      N/A     90  37  15 CALM      30.01F
$$

MTZ017>020-022>027-061-062-010300-
NORTHEAST MONTANA

CITY           SKY/WX    TMP DP  RH WIND       PRES   REMARKS
GLASGOW        CLEAR     87  43  21 NW7       29.98R
JORDAN           N/A     88  42  20 N6        30.00S
SIDNEY         CLEAR    N/A N/A N/A NE7       29.97S
WOLF POINT     CLEAR     89  47  23 E6        29.97R
PLENTYWOOD       N/A     75  52  43 NE6       30.01F
POPLAR           N/A     82  48  30 NE7       29.98R
SCOBEY           N/A     79  52  38 E12       30.00F
$$

MTZ028>42-056>058-010300-
SOUTHCENTRAL AND SOUTHEAST MONTANA

CITY           SKY/WX    TMP DP  RH WIND       PRES   REMARKS
BAKER          CLEAR     84  44  24 SE14      30.04F
BILLINGS       PTCLDY    90  26  10 N12       30.08R
LIVINGSTON     CLEAR     85  29  13 W6        30.16S
MILES CITY     CLEAR     91  40  16 N7        29.98S
FORSYTH          N/A     91  39  16 CALM      29.99S
$$

REGIONAL REPORTS...DAKOTAS

CITY           SKY/WX    TMP DP  RH WIND       PRES   REMARKS
WILLISTON      CLEAR     82  51  34 NE12      30.00F
MINOT          CLEAR     72  53  51 N3        30.01F
DICKINSON      CLEAR     75  53  46 E7        30.02F
BEACH          FAIR      75  54  46 SE5       30.03F
CROSBY         FAIR      70  61  73 SE6       30.03F
BISMARCK       CLEAR     76  56  49 E7        30.03R
GRAND FORKS    CLEAR     68  57  68 NW5       29.96S
FARGO          CLEAR     73  59  61 N5        29.97S
BUFFALO SD       N/A     80  46  30 SE12      30.01S
RAPID CITY     CLEAR     76  55  48 NE10      30.10S
$$

REGIONAL REPORTS...WYOMING/IDAHO/WASHINGTON

CITY           SKY/WX    TMP DP  RH WIND       PRES   REMARKS
GILLETTE       PTCLDY    83  46  27 E13       30.12S
SHERIDAN       CLEAR     82  52  35 W3        30.10R
BUFFALO WY     CLEAR     83  41  22 NW9       30.18S
CODY           PTCLDY    81  39  22 NE6       30.18S
YELLOWSTONE LA   N/A     70  28  21 VRB3      30.44R
IDAHO FALLS    CLEAR     89  31  12 E5        30.17S
SALMON         CLEAR     84  59  42 W3        30.07S
BOISE          SUNNY     96  40  14 W7        30.01F HX  92
SPOKANE        PTSUNNY   97  21   6 SW12      29.97F HX  90
$$

REGIONAL REPORTS...ALBERTA

CITY           SKY/WX    TMP DP  RH WIND       PRES   REMARKS
EDMONTON       SUNNY     77  52  41 NW7       29.95R
CALGARY        MOSUNNY   84  45  24 S10       29.98F
LETHBRIDGE     MOSUNNY   84  45  24 SW8       29.96F
MEDICINE HAT   CLEAR     88  41  19 S6        29.94F
WATERTON GATE    N/A     82  32  16 W10         N/A
CARDSTON         N/A     86  36  16 W6          N/A
MILK RIVER       N/A     86  36  16 SW5         N/A
ONEFOUR          N/A     82  43  24 E3          N/A
$$

REGIONAL REPORTS...SASKATCHEWAN

CITY           SKY/WX    TMP DP  RH WIND       PRES   REMARKS
SWIFT CURRENT  CLEAR     73  55  53 E10       30.03S
REGINA         PTCLDY    73  50  43 N3        30.03F
SASKATOON      MOCLDY    73  57  56 SW3       30.01F
CYPRESS HILLS    N/A     79  41  25 W2          N/A
VAL MARIE        N/A     79  55  44 NE8         N/A
ROCKGLEN         N/A     73  52  46 NE2         N/A
ASSINIBOIA       N/A     79  61  53 W3          N/A
$$


USA.gov is the U.S. government's official web portal to all federal, state and local government web resources and services.